Torna al catalogo

STARLINK-37138

AttivoComunicazioniSSO
NORAD 68308·PAYLOAD·🇺🇸 United States

Lanciato Mar 20, 2026 da Vandenberg Space Force Base

Loading…

Prossimi Passaggi (prossime 24 ore)

TLE

AggiornatoSource: CelesTrak SupGP

Epoca: Sep 15, 2026, 04:07 UTC

1 68308C 26057Q   26258.17201389  .00019310  00000+0  59949-3 0  2589
2 68308  97.2854  23.6868 0001432  85.0705 142.1808 15.33425487    17

Traccia STARLINK-37138 in tempo reale con AllMySat

Download on the App Store